sat.trackr.live / text

‹ back to catalog

ICEYE-X25

NORAD 56963 · 2023-084AH

PAYLOAD ACTIVE UNKNOWN

§ Identity

Operator
Country
FIN
Launch date
2023-06-12
Launch site
AFWTR
Launch vehicle
Mass (kg)
RCS (m²)

External: N2YO · Heavens-Above · Gunter

§ Orbital elements

Epoch: 2026-09-21T22:32:53.124000Z

Period
91.92 min
Inclination
97.5976°
Eccentricity
0.0002569
Mean motion
15.66534824 rev/d
Perigee alt
367.1 km
Apogee alt
370.6 km
Semi-major
6,747.0 km
B*
2.4632e-4
RAAN
58.4405°
Arg perigee
310.2183°
Mean anomaly
49.8852°
Rev number
18,309

§ Raw data

ICEYE-X251 56963U 23084AH  26264.93950375  .00025586  00000+0  24632-3 0  99922 56963  97.5976  58.4405 0002569 310.2183  49.8852 15.66534824183091

JSON: /api/v1/satellites/56963 · /tle

For live sub-satellite position, see the globe view (requires WebGL).

§ Visibility from observer

Set your observer location to see the next 7 days of passes ≥ 10°. The values pass through the URL so the page stays shareable.

No JS? Fill the form by hand. The geolocation button needs JavaScript.

§ Radio — SatNOGS DB

ModeDescriptionDownlinkUplink
BPSK S-band telemetry 2.264 GHz

1 transmitter · refreshed weekly from db.satnogs.org